Flag for Portugal Weather past 2 weeks in Viana do Castelo, Portugal

Now
61 °F

Scattered clouds.


Feels Like: 61 °F
Forecast: 50 / 62 °F
Wind: 12 mph from Northwest

Location: Porto / Pedras Rubras

Current Time: Apr 27, 2015 at 6:15:34 PM

Latest Report: Apr 27, 2015 at 5:30 PM


Visibility: N/A

Pressure: 30.07 "Hg

Humidity: 77%

Dew point: 54 °F

Location of Viana do CasteloLocation

Historic Weather in Viana do Castelo — Graph

°F

Viana do Castelo temperature yesterday

Maximum temperature yesterday: 61 °F (at 10:30 AM)
Minimum temperature yesterday: 52 °F (at 11:30 PM)
Average temperature yesterday: 58 °F

Past Weeks' High & Low Weather Summary

 TemperatureHumidityPressure
High81 °F (Apr 13, 3:00 PM)100% (Apr 15, 6:00 AM)30.18 "Hg (Apr 15, 6:00 AM)
Low45 °F (Apr 20, 4:00 AM)26% (Apr 13, 3:00 PM)29.74 "Hg (Apr 25, 11:00 PM)
Average58 °F81%30.02 "Hg
* Reported Apr 12 5:00 PM — Apr 27 5:00 PM, Viana do Castelo, Weather by CustomWeather, © 2015

Note: Actual official high and low records may vary slightly from our data, if they occured in-between our weather recording intervals... More about our weather records

Advertising

Viana do Castelo weather history for previous 24 hours

 ConditionsComfort  
Time TempWeatherWind HumidityBarometerVisibility
5:00 PM
Mon, Apr 27
61 °FScattered clouds.9 mph77%30.07 "HgN/A
4:30 PM61 °FPassing clouds.9 mph77%30.04 "HgN/A
4:00 PM61 °FPassing clouds.8 mph77%30.07 "HgN/A
3:30 PM63 °FPassing clouds.8 mph68%30.04 "HgN/A
3:00 PM63 °FPassing clouds.9 mph64%30.04 "HgN/A
2:30 PM63 °FPassing clouds.9 mph64%30.04 "HgN/A
2:00 PM63 °FPassing clouds.10 mph77%30.04 "HgN/A
1:30 PM63 °FPassing clouds.8 mph77%30.04 "HgN/A
1:00 PM61 °FPassing clouds.9 mph77%30.04 "HgN/A
12:30 PM59 °FPassing clouds.9 mph82%30.04 "HgN/A
12:00 PM61 °FScattered clouds.10 mph83%30.04 "HgN/A
11:30 AM57 °FSprinkles. Partly sunny.7 mph88%30.04 "HgN/A
11:00 AM57 °FPartly sunny.6 mph88%30.04 "HgN/A
10:30 AM59 °FScattered showers. Partly sunny.6 mph88%30.01 "HgN/A
10:00 AM59 °FScattered showers. Partly sunny.7 mph82%30.01 "HgN/A
9:30 AM59 °FPartly sunny.5 mph88%30.01 "HgN/A
9:00 AM59 °FScattered clouds.1 mph94%30.01 "HgN/A
8:30 AM57 °FScattered clouds.No wind94%29.98 "HgN/A
8:00 AM54 °FPassing clouds.2 mph100%29.98 "HgN/A
7:30 AM52 °FPassing clouds.2 mph100%29.98 "Hg5 mi
7:00 AM52 °FPassing clouds.3 mph100%29.95 "HgN/A
6:30 AM52 °FPassing clouds.1 mph94%29.95 "HgN/A
6:00 AM52 °FPassing clouds.2 mph94%29.95 "HgN/A
5:30 AM52 °FPassing clouds.No wind100%29.95 "HgN/A
5:00 AM52 °FPassing clouds.2 mph100%29.95 "HgN/A
4:30 AM52 °FPassing clouds.No wind100%29.92 "HgN/A
4:00 AM52 °FSprinkles. Partly cloudy.2 mph100%29.92 "HgN/A
3:30 AM52 °FPassing clouds.1 mph100%29.92 "HgN/A
3:00 AM50 °FPassing clouds.2 mph100%29.92 "HgN/A
2:30 AM52 °FPassing clouds.2 mph94%29.92 "HgN/A
2:00 AM50 °FPassing clouds.3 mph100%29.92 "HgN/A
1:30 AM50 °FPassing clouds.No wind94%29.95 "HgN/A
1:00 AM50 °FPassing clouds.No wind100%29.92 "HgN/A
12:30 AM52 °FPassing clouds.No wind94%29.92 "HgN/A
12:00 AM52 °FPassing clouds.No wind94%29.92 "HgN/A
11:30 PM
Sun, Apr 26
52 °FPassing clouds.No wind94%29.92 "HgN/A
11:00 PM54 °FPassing clouds.2 mph88%29.92 "HgN/A
10:30 PM54 °FPassing clouds.No wind94%29.89 "HgN/A
10:00 PM55 °FPassing clouds.3 mph88%29.89 "HgN/A
9:30 PM55 °FPassing clouds.3 mph88%29.86 "HgN/A
9:00 PM57 °FScattered clouds.6 mph82%29.86 "HgN/A
8:30 PM57 °FPassing clouds.6 mph82%29.86 "HgN/A
8:00 PM57 °FPassing clouds.5 mph82%29.83 "HgN/A
7:30 PM59 °FScattered clouds.6 mph77%29.83 "HgN/A
7:00 PM59 °FScattered clouds.6 mph77%29.83 "HgN/A
6:30 PM59 °FScattered clouds.8 mph77%29.80 "HgN/A
6:00 PM59 °FScattered clouds.7 mph77%29.80 "HgN/A
Weather by CustomWeather, © 2015

See weather overviewHow to use our weather pages